Location: Newport
(44.6370°N, 124.0520°W)
Time: 05:05:38
(UTC-07:00)

ISS - Pass Details

Date: 10 October 2017
Orbit: 401 x 408 km, 51.6° (Epoch: 23 October)

Event Time Altitude Azimuth Distance (km) Brightness Sun altitude
Rises 19:46:10 0° 301° (WNW) 2,327 1.2 -12.6°
Reaches altitude 10° 19:48:18 10° 308° (NW) 1,467 -0.1 -13.0°
Maximum altitude 19:51:29 46° 23° (NNE) 560 -3.3 -13.6°
Enters shadow 19:52:52 27° 80° (E) 814 -2.9 -13.8°
